Flag for Poland Weather past 2 weeks in Kraków, Poland

Now
59 °F

Passing clouds.


Feels Like: 57 °F
Forecast: 49 / 70 °F
Wind: 9 mph from East

Location: Krakow Airport

Current Time: Sep 4, 2015 at 3:37:05 AM

Latest Report: Sep 4, 2015 at 3:00 AM


Visibility: N/A

Pressure: 29.86 "Hg

Humidity: 88%

Dew point: 55 °F

Location of KrakówLocation

Historic Weather in Kraków — Graph

°F

Kraków temperature yesterday

Maximum temperature yesterday: 68 °F (at 3:30 PM)
Minimum temperature yesterday: 57 °F (at 4:00 AM)
Average temperature yesterday: 62 °F

Past Weeks' High & Low Weather Summary

 TemperatureHumidityPressure
High95 °F (Aug 31, 4:30 PM)100% (Aug 25, 9:30 PM)30.30 "Hg (Aug 25, 9:30 PM)
Low50 °F (Aug 20, 5:00 AM)23% (Sep 1, 1:00 PM)29.74 "Hg (Sep 1, 4:30 PM)
Average67 °F68%30.07 "Hg
* Reported Aug 20 2:00 AM — Sep 4 2:30 AM, Kraków, Weather by CustomWeather, © 2015

Note: Actual official high and low records may vary slightly from our data, if they occured in-between our weather recording intervals... More about our weather records

Advertising

Kraków weather history for previous 24 hours

 ConditionsComfort  
Time TempWeatherWind HumidityBarometerVisibility
2:30 AM
Fri, Sep 4
61 °FPassing clouds.9 mph83%29.86 "HgN/A
2:00 AM61 °FPassing clouds.9 mph83%29.86 "HgN/A
1:30 AM61 °FPassing clouds.10 mph83%29.89 "HgN/A
1:00 AM61 °FPassing clouds.9 mph83%29.89 "HgN/A
12:30 AM61 °FPassing clouds.9 mph83%29.89 "HgN/A
12:00 AM61 °FPassing clouds.9 mph83%29.92 "HgN/A
11:30 PM
Thu, Sep 3
61 °FPassing clouds.8 mph83%29.92 "HgN/A
11:00 PM61 °FPassing clouds.7 mph83%29.92 "HgN/A
10:30 PM61 °FPassing clouds.7 mph83%29.92 "HgN/A
10:00 PM63 °FPassing clouds.5 mph77%29.95 "HgN/A
9:30 PM61 °FClear.8 mph83%29.92 "Hg10 mi
9:00 PM61 °FClear.7 mph88%29.95 "Hg10 mi
8:30 PM61 °FClear.7 mph83%29.95 "Hg10 mi
8:00 PM63 °FSunny.6 mph77%29.95 "Hg10 mi
7:30 PM63 °FSunny.7 mph77%29.95 "Hg10 mi
7:00 PM64 °FSunny.7 mph73%29.95 "Hg10 mi
6:30 PM66 °FSunny.8 mph68%29.95 "Hg10 mi
6:00 PM66 °FSunny.8 mph64%29.95 "Hg10 mi
5:30 PM66 °FSunny.9 mph64%29.95 "Hg10 mi
5:00 PM68 °FSunny.9 mph60%29.95 "Hg10 mi
4:30 PM68 °FPassing clouds.9 mph60%29.95 "HgN/A
4:00 PM68 °FPassing clouds.8 mph60%29.95 "HgN/A
3:30 PM68 °FScattered clouds.9 mph60%29.98 "HgN/A
3:00 PM66 °FBroken clouds.8 mph64%29.98 "HgN/A
2:30 PM66 °FBroken clouds.9 mph68%29.98 "HgN/A
2:00 PM66 °FBroken clouds.9 mph68%29.98 "HgN/A
1:30 PM66 °FBroken clouds.7 mph64%30.01 "HgN/A
1:00 PM66 °FBroken clouds.6 mph64%30.01 "HgN/A
12:30 PM64 °FPartly sunny.8 mph68%30.01 "HgN/A
12:00 PM64 °FBroken clouds.8 mph68%30.01 "HgN/A
11:30 AM64 °FPartly sunny.8 mph68%30.01 "HgN/A
11:00 AM63 °FPartly sunny.6 mph77%30.04 "HgN/A
10:30 AM61 °FPartly sunny.6 mph83%30.01 "HgN/A
10:00 AM61 °FPartly sunny.6 mph83%30.01 "HgN/A
9:30 AM61 °FPartly sunny.6 mph83%30.01 "HgN/A
9:00 AM61 °FPartly sunny.5 mph83%30.01 "HgN/A
8:30 AM59 °FPartly sunny.5 mph94%30.01 "HgN/A
8:00 AM59 °FPartly sunny.3 mph88%30.01 "HgN/A
7:30 AM59 °FPartly sunny.5 mph88%30.01 "HgN/A
7:00 AM57 °FPartly sunny.3 mph88%30.01 "HgN/A
6:30 AM57 °FPassing clouds.3 mph88%30.01 "HgN/A
6:00 AM57 °FPassing clouds.3 mph88%30.01 "HgN/A
5:30 AM57 °FLight rain. Passing clouds.2 mph88%30.01 "HgN/A
5:00 AM57 °FPassing clouds.2 mph88%29.98 "HgN/A
4:30 AM57 °FLight rain. Passing clouds.2 mph94%29.98 "HgN/A
4:00 AM57 °FLight rain. Passing clouds.2 mph94%30.01 "HgN/A
3:30 AM59 °FLight rain. Passing clouds.2 mph77%30.01 "HgN/A
3:00 AM59 °FLight rain. Passing clouds.2 mph88%30.01 "HgN/A
Weather by CustomWeather, © 2015

See weather overviewHow to use our weather pages